Time,TemperatureF,DewpointF,PressureIn,WindDirection,WindDirectionDegrees,WindSpeedMPH,WindSpeedGustMPH,Humidity,HourlyPrecipIn,Conditions,Clouds,dailyrainin,SolarRadiationWatts/m^2,SoftwareType,DateUTC
2013-02-08 00:14:00,28.9,19.0,30.35,South,185,0.0,-999.0,66,-99.99,,,0.00,0,weatherlink.com 1.10,2013-02-08 05:14:00,
2013-02-08 00:29:00,29.2,19.0,30.34,SSE,164,1.0,-999.0,66,-99.99,,,0.00,0,weatherlink.com 1.10,2013-02-08 05:29:00,
2013-02-08 00:44:00,29.4,19.0,30.34,ESE,106,0.0,-999.0,66,-99.99,,,0.00,0,weatherlink.com 1.10,2013-02-08 05:44:00,
2013-02-08 00:59:00,29.2,19.0,30.33,ESE,117,4.0,-999.0,66,-99.99,,,0.00,0,weatherlink.com 1.10,2013-02-08 05:59:00,
2013-02-08 01:14:00,29.0,19.0,30.32,SE,127,4.0,-999.0,67,-99.99,,,0.00,0,weatherlink.com 1.10,2013-02-08 06:14:00,
2013-02-08 01:29:00,29.0,20.0,30.32,South,180,4.0,-999.0,69,-99.99,,,0.00,0,weatherlink.com 1.10,2013-02-08 06:29:00,
2013-02-08 01:44:00,29.0,20.0,30.32,SSE,157,7.0,-999.0,68,-99.99,,,0.00,0,weatherlink.com 1.10,2013-02-08 06:44:00,
2013-02-08 01:59:00,28.8,20.0,30.31,ESE,110,5.0,-999.0,69,-99.99,,,0.00,0,weatherlink.com 1.10,2013-02-08 06:59:00,
2013-02-08 02:14:00,28.8,20.0,30.31,South,184,1.0,-999.0,69,-99.99,,,0.00,0,weatherlink.com 1.10,2013-02-08 07:14:00,
2013-02-08 02:29:00,28.7,20.0,30.30,ESE,123,1.0,-999.0,69,-99.99,,,0.00,0,weatherlink.com 1.10,2013-02-08 07:29:00,
2013-02-08 02:44:00,28.4,20.0,30.30,ESE,108,0.0,-999.0,70,-99.99,,,0.00,0,weatherlink.com 1.10,2013-02-08 07:44:00,
2013-02-08 02:59:00,28.3,19.0,30.29,SSE,155,4.0,-999.0,69,-99.99,,,0.00,0,weatherlink.com 1.10,2013-02-08 07:59:00,
2013-02-08 03:14:00,28.2,18.0,30.27,SE,124,5.0,-999.0,67,-99.99,,,0.00,0,weatherlink.com 1.10,2013-02-08 08:14:00,
2013-02-08 03:29:00,28.3,18.0,30.27,SSE,148,7.0,-999.0,66,-99.99,,,0.00,0,weatherlink.com 1.10,2013-02-08 08:29:00,
2013-02-08 03:44:00,28.3,18.0,30.26,ENE,76,1.0,-999.0,66,-99.99,,,0.00,0,weatherlink.com 1.10,2013-02-08 08:44:00,
2013-02-08 03:59:00,28.3,19.0,30.25,ENE,76,2.0,-999.0,67,-99.99,,,0.00,0,weatherlink.com 1.10,2013-02-08 08:59:00,
2013-02-08 04:14:00,28.4,19.0,30.25,ENE,65,2.0,-999.0,69,-99.99,,,0.00,0,weatherlink.com 1.10,2013-02-08 09:14:00,
2013-02-08 04:29:00,28.4,19.0,30.24,ENE,65,0.0,-999.0,69,-99.99,,,0.00,0,weatherlink.com 1.10,2013-02-08 09:29:00,
2013-02-08 04:44:00,28.7,20.0,30.24,ENE,65,0.0,-999.0,70,-99.99,,,0.00,0,weatherlink.com 1.10,2013-02-08 09:44:00,
2013-02-08 04:59:00,28.5,21.0,30.24,NE,48,2.0,-999.0,72,-99.99,,,0.00,0,weatherlink.com 1.10,2013-02-08 09:59:00,
2013-02-08 05:14:00,28.5,21.0,30.23,NNW,332,0.0,-999.0,74,-99.99,,,0.00,0,weatherlink.com 1.10,2013-02-08 10:14:00,
2013-02-08 05:29:00,28.7,21.0,30.22,ESE,105,2.0,-999.0,73,-99.99,,,0.00,0,weatherlink.com 1.10,2013-02-08 10:29:00,
2013-02-08 05:44:00,28.7,22.0,30.21,North,5,0.0,-999.0,75,-99.99,,,0.00,0,weatherlink.com 1.10,2013-02-08 10:44:00,
2013-02-08 05:59:00,28.9,22.0,30.20,SSE,161,0.0,-999.0,76,-99.99,,,0.00,0,weatherlink.com 1.10,2013-02-08 10:59:00,
2013-02-08 06:14:00,28.8,22.0,30.20,NNE,31,0.0,-999.0,76,-99.99,,,0.00,0,weatherlink.com 1.10,2013-02-08 11:14:00,
2013-02-08 06:29:00,29.0,23.0,30.19,ENE,76,3.0,-999.0,78,-99.99,,,0.00,0,weatherlink.com 1.10,2013-02-08 11:29:00,
2013-02-08 06:44:00,29.1,23.0,30.18,East,97,4.0,-999.0,79,-99.99,,,0.00,0,weatherlink.com 1.10,2013-02-08 11:44:00,
2013-02-08 06:59:00,29.4,24.0,30.18,ESE,115,1.0,-999.0,80,-99.99,,,0.00,0,weatherlink.com 1.10,2013-02-08 11:59:00,
2013-02-08 07:14:00,29.5,24.0,30.17,ESE,121,1.0,-999.0,81,-99.99,,,0.00,0,weatherlink.com 1.10,2013-02-08 12:14:00,
2013-02-08 07:29:00,29.4,25.0,30.16,NE,40,2.0,-999.0,83,-99.99,,,0.00,5,weatherlink.com 1.10,2013-02-08 12:29:00,
2013-02-08 07:44:00,29.4,25.0,30.16,NNE,22,1.0,-999.0,84,-99.99,,,0.00,7,weatherlink.com 1.10,2013-02-08 12:44:00,
2013-02-08 07:59:00,29.6,26.0,30.16,ENE,71,1.0,-999.0,85,-99.99,,,0.00,12,weatherlink.com 1.10,2013-02-08 12:59:00,
2013-02-08 08:14:00,29.8,26.0,30.15,SE,135,2.0,-999.0,85,-99.99,,,0.00,11,weatherlink.com 1.10,2013-02-08 13:14:00,
2013-02-08 08:29:00,29.9,26.0,30.15,North,5,3.0,-999.0,85,-99.99,,,0.00,32,weatherlink.com 1.10,2013-02-08 13:29:00,
2013-02-08 08:44:00,30.0,26.0,30.14,ENE,77,0.0,-999.0,85,-99.99,,,0.00,44,weatherlink.com 1.10,2013-02-08 13:44:00,
2013-02-08 08:59:00,30.3,26.0,30.13,NNE,13,0.0,-999.0,85,-99.99,,,0.00,72,weatherlink.com 1.10,2013-02-08 13:59:00,
2013-02-08 09:14:00,30.4,26.0,30.12,East,94,4.0,-999.0,85,-99.99,,,0.00,95,weatherlink.com 1.10,2013-02-08 14:14:00,
2013-02-08 09:29:00,30.7,26.0,30.12,ENE,75,4.0,-999.0,84,-99.99,,,0.00,79,weatherlink.com 1.10,2013-02-08 14:29:00,
2013-02-08 09:44:00,30.8,27.0,30.11,SE,134,7.0,-999.0,84,-99.99,,,0.00,102,weatherlink.com 1.10,2013-02-08 14:44:00,
2013-02-08 09:59:00,31.0,27.0,30.09,WNW,296,3.0,-999.0,85,-99.99,,,0.00,95,weatherlink.com 1.10,2013-02-08 14:59:00,
2013-02-08 10:14:00,30.9,27.0,30.09,NE,51,3.0,-999.0,86,-99.99,,,0.00,97,weatherlink.com 1.10,2013-02-08 15:14:00,
2013-02-08 10:29:00,30.8,27.0,30.07,ESE,102,2.0,-999.0,87,-99.99,,,0.00,86,weatherlink.com 1.10,2013-02-08 15:29:00,
2013-02-08 10:44:00,30.9,28.0,30.06,WNW,295,1.0,-999.0,88,-99.99,,,0.00,79,weatherlink.com 1.10,2013-02-08 15:44:00,
2013-02-08 10:59:00,30.8,28.0,30.05,NNE,18,1.0,-999.0,89,-99.99,,,0.00,67,weatherlink.com 1.10,2013-02-08 15:59:00,
2013-02-08 11:14:00,30.9,28.0,30.04,NE,53,4.0,-999.0,89,-99.99,,,0.00,60,weatherlink.com 1.10,2013-02-08 16:14:00,
2013-02-08 11:29:00,30.6,28.0,30.02,NNE,20,5.0,-999.0,90,-99.99,,,0.00,69,weatherlink.com 1.10,2013-02-08 16:29:00,
2013-02-08 11:44:00,30.5,28.0,30.00,NE,52,1.0,-999.0,91,-99.99,,,0.01,62,weatherlink.com 1.10,2013-02-08 16:44:00,
2013-02-08 11:59:00,30.6,28.0,29.98,NE,51,4.0,-999.0,91,-99.99,,,0.01,67,weatherlink.com 1.10,2013-02-08 16:59:00,
2013-02-08 12:14:00,30.7,28.0,29.97,East,88,3.0,-999.0,90,-99.99,,,0.01,54,weatherlink.com 1.10,2013-02-08 17:14:00,
2013-02-08 12:29:00,30.7,28.0,29.96,NNE,26,10.0,-999.0,90,-99.99,,,0.02,56,weatherlink.com 1.10,2013-02-08 17:29:00,
2013-02-08 12:44:00,30.8,29.0,29.95,NE,50,3.0,-999.0,91,-99.99,,,0.02,53,weatherlink.com 1.10,2013-02-08 17:44:00,
2013-02-08 12:59:00,30.8,29.0,29.93,NNE,28,3.0,-999.0,91,-99.99,,,0.02,46,weatherlink.com 1.10,2013-02-08 17:59:00,
2013-02-08 13:14:00,30.7,29.0,29.91,ENE,67,3.0,-999.0,92,-99.99,,,0.03,49,weatherlink.com 1.10,2013-02-08 18:14:00,
2013-02-08 13:29:00,30.8,29.0,29.90,NE,45,2.0,-999.0,92,-99.99,,,0.03,42,weatherlink.com 1.10,2013-02-08 18:29:00,
2013-02-08 13:44:00,30.8,29.0,29.89,East,96,7.0,-999.0,92,-99.99,,,0.03,32,weatherlink.com 1.10,2013-02-08 18:44:00,
2013-02-08 13:59:00,30.9,29.0,29.87,ENE,63,2.0,-999.0,92,-99.99,,,0.04,28,weatherlink.com 1.10,2013-02-08 18:59:00,
2013-02-08 14:14:00,31.0,29.0,29.86,North,5,5.0,-999.0,92,-99.99,,,0.04,26,weatherlink.com 1.10,2013-02-08 19:14:00,
2013-02-08 14:29:00,31.2,29.0,29.85,ENE,63,7.0,-999.0,92,-99.99,,,0.05,21,weatherlink.com 1.10,2013-02-08 19:29:00,
2013-02-08 14:44:00,31.1,29.0,29.84,NE,40,1.0,-999.0,93,-99.99,,,0.05,19,weatherlink.com 1.10,2013-02-08 19:44:00,
2013-02-08 14:59:00,31.0,30.0,29.82,ENE,67,2.0,-999.0,94,-99.99,,,0.06,12,weatherlink.com 1.10,2013-02-08 19:59:00,
2013-02-08 15:14:00,31.0,30.0,29.81,ENE,71,8.0,-999.0,94,-99.99,,,0.07,14,weatherlink.com 1.10,2013-02-08 20:14:00,
2013-02-08 15:29:00,31.0,30.0,29.80,NE,46,4.0,-999.0,95,-99.99,,,0.07,16,weatherlink.com 1.10,2013-02-08 20:29:00,
2013-02-08 15:44:00,31.0,30.0,29.78,ENE,69,3.0,-999.0,95,-99.99,,,0.08,12,weatherlink.com 1.10,2013-02-08 20:44:00,
2013-02-08 15:59:00,30.9,30.0,29.77,NE,44,3.0,-999.0,95,-99.99,,,0.08,9,weatherlink.com 1.10,2013-02-08 20:59:00,
2013-02-08 16:14:00,30.8,30.0,29.77,NE,40,1.0,-999.0,95,-99.99,,,0.08,5,weatherlink.com 1.10,2013-02-08 21:14:00,
2013-02-08 16:29:00,30.6,29.0,29.76,NE,51,3.0,-999.0,95,-99.99,,,0.08,0,weatherlink.com 1.10,2013-02-08 21:29:00,
2013-02-08 16:44:00,30.5,29.0,29.75,NE,42,5.0,-999.0,95,-99.99,,,0.08,0,weatherlink.com 1.10,2013-02-08 21:44:00,
2013-02-08 16:59:00,30.3,29.0,29.75,North,11,5.0,-999.0,95,-99.99,,,0.09,0,weatherlink.com 1.10,2013-02-08 21:59:00,
2013-02-08 17:14:00,30.0,29.0,29.75,North,360,4.0,-999.0,95,-99.99,,,0.09,0,weatherlink.com 1.10,2013-02-08 22:14:00,
2013-02-08 17:29:00,29.8,29.0,29.74,NNE,14,5.0,-999.0,95,-99.99,,,0.10,0,weatherlink.com 1.10,2013-02-08 22:29:00,
2013-02-08 17:44:00,29.4,28.0,29.74,NNE,17,3.0,-999.0,95,-99.99,,,0.10,0,weatherlink.com 1.10,2013-02-08 22:44:00,
2013-02-08 17:59:00,29.1,28.0,29.74,NE,36,3.0,-999.0,95,-99.99,,,0.10,0,weatherlink.com 1.10,2013-02-08 22:59:00,
2013-02-08 18:14:00,29.0,28.0,29.72,NE,46,4.0,-999.0,95,-99.99,,,0.10,0,weatherlink.com 1.10,2013-02-08 23:14:00,
2013-02-08 18:29:00,28.7,28.0,29.72,ENE,61,17.0,-999.0,95,-99.99,,,0.11,0,weatherlink.com 1.10,2013-02-08 23:29:00,
2013-02-08 18:44:00,28.5,28.0,29.71,NNE,32,6.0,-999.0,96,-99.99,,,0.12,0,weatherlink.com 1.10,2013-02-08 23:44:00,
2013-02-08 18:59:00,28.4,27.0,29.71,NNE,22,7.0,-999.0,96,-99.99,,,0.12,0,weatherlink.com 1.10,2013-02-08 23:59:00,
2013-02-08 19:14:00,28.3,27.0,29.70,North,5,3.0,-999.0,96,-99.99,,,0.14,0,weatherlink.com 1.10,2013-02-09 00:14:00,
2013-02-08 19:29:00,28.3,27.0,29.69,NE,34,4.0,-999.0,96,-99.99,,,0.15,0,weatherlink.com 1.10,2013-02-09 00:29:00,
2013-02-08 19:44:00,28.3,27.0,29.69,NE,55,5.0,-999.0,96,-99.99,,,0.16,0,weatherlink.com 1.10,2013-02-09 00:44:00,
2013-02-08 19:59:00,28.2,27.0,29.68,NNE,31,4.0,-999.0,96,-99.99,,,0.18,0,weatherlink.com 1.10,2013-02-09 00:59:00,
2013-02-08 20:14:00,27.9,27.0,29.67,NE,40,4.0,-999.0,96,-99.99,,,0.20,0,weatherlink.com 1.10,2013-02-09 01:14:00,
2013-02-08 20:29:00,27.6,27.0,29.67,North,5,9.0,-999.0,96,-99.99,,,0.22,0,weatherlink.com 1.10,2013-02-09 01:29:00,
2013-02-08 20:44:00,27.4,26.0,29.67,North,360,5.0,-999.0,96,-99.99,,,0.23,0,weatherlink.com 1.10,2013-02-09 01:44:00,
2013-02-08 20:59:00,27.3,26.0,29.67,North,11,6.0,-999.0,96,-99.99,,,0.25,0,weatherlink.com 1.10,2013-02-09 01:59:00,
2013-02-08 21:14:00,26.8,26.0,29.66,North,360,11.0,-999.0,96,-99.99,,,0.26,0,weatherlink.com 1.10,2013-02-09 02:14:00,
2013-02-08 21:29:00,26.3,25.0,29.66,NNE,14,7.0,-999.0,96,-99.99,,,0.27,0,weatherlink.com 1.10,2013-02-09 02:29:00,
2013-02-08 21:44:00,25.9,25.0,29.66,North,351,6.0,-999.0,96,-99.99,,,0.28,0,weatherlink.com 1.10,2013-02-09 02:44:00,
2013-02-08 21:59:00,25.6,25.0,29.66,NNE,15,6.0,-999.0,96,-99.99,,,0.29,0,weatherlink.com 1.10,2013-02-09 02:59:00,
2013-02-08 22:14:00,25.5,25.0,29.66,NNW,333,5.0,-999.0,96,-99.99,,,0.30,0,weatherlink.com 1.10,2013-02-09 03:14:00,
2013-02-08 22:29:00,25.4,25.0,29.67,NNE,30,7.0,-999.0,96,-99.99,,,0.31,0,weatherlink.com 1.10,2013-02-09 03:29:00,
2013-02-08 22:44:00,25.3,24.0,29.69,NNE,15,6.0,-999.0,96,-99.99,,,0.32,0,weatherlink.com 1.10,2013-02-09 03:44:00,
2013-02-08 22:59:00,25.1,24.0,29.70,North,355,6.0,-999.0,96,-99.99,,,0.32,0,weatherlink.com 1.10,2013-02-09 03:59:00,
2013-02-08 23:14:00,25.1,24.0,29.71,NNE,28,9.0,-999.0,96,-99.99,,,0.33,0,weatherlink.com 1.10,2013-02-09 04:14:00,
2013-02-08 23:29:00,25.2,24.0,29.71,North,11,3.0,-999.0,96,-99.99,,,0.35,0,weatherlink.com 1.10,2013-02-09 04:29:00,
2013-02-08 23:44:00,24.7,24.0,29.73,North,5,2.0,-999.0,96,-99.99,,,0.37,0,weatherlink.com 1.10,2013-02-09 04:44:00,
2013-02-08 23:59:00,24.2,23.0,29.74,NNE,15,2.0,-999.0,95,-99.99,,,0.38,0,weatherlink.com 1.10,2013-02-09 04:59:00,